Probability
35 55 77 77 74 71 77 87 84 84 81 81 81 74 71 68 71 81 71 74 68 74 74 61 61 68 68 74 74 65 61 58 61 58 55 55 52 61 65 52 58 45 65
42 58 77 81 77 81 87 87 87 87 84 81 77 81 74 74 74 81 77 84 74 81 84 77 68 71 65 68 68 61 58 61 68 48 45 52 52 61 68 58 52 45 55
55 55 74 84 87 87 87 90 84 81 81 81 84 81 77 90 77 74 74 84 81 77 87 74 68 65 55 68 61 58 58 65 71 58 39 16 45 68 77 71 65 65 55
39 42 68 87 90 90 87 87 81 77 74 74 81 77 84 87 84 81 77 77 84 71 74 68 71 65 55 55 55 52 58 58 65 35 10 16 23 68 77 71 68 58 52
39 55 74 87 90 90 87 90 87 71 68 68 74 77 81 90 87 71 74 71 74 77 71 71 71 65 58 52 52 45 45 45 45 16 3 6 19 71 71 58 58 48 45
52 65 77 90 90 90 90 84 81 74 68 71 77 81 84 81 74 77 74 74 71 74 71 58 61 61 55 52 52 45 58 58 16 0 0 13 19 71 55 52 52 45 39
48 55 74 84 90 84 87 81 77 77 74 74 77 74 74 68 74 68 71 74 74 71 58 58 55 55 48 48 52 45 55 42 10 3 0 6 23 68 52 52 48 45 48
42 55 68 84 90 81 81 84 81 77 84 71 68 74 68 71 77 81 71 68 61 55 52 48 45 42 39 39 45 55 65 35 6 3 3 3 52 71 48 42 39 45 42
42 55 65 68 71 74 77 81 77 77 74 77 68 71 68 65 65 65 61 68 58 45 42 42 39 26 26 32 39 52 68 39 0 0 3 10 65 68 52 52 42 45 35
26 39 45 45 52 61 65 77 74 84 74 74 71 71 68 55 52 55 68 61 52 42 35 32 32 32 35 45 52 52 52 16 6 6 3 10 65 55 48 39 42 35 39
19 19 29 32 29 29 45 68 61 68 68 65 48 65 45 13 16 26 39 52 48 48 29 35 32 35 39 42 45 48 29 10 3 0 0 26 58 48 42 42 29 26 16
6 13 19 29 19 19 32 32 26 29 32 19 13 13 10 6 6 16 45 55 52 48 39 42 48 35 19 6 13 16 6 3 0 0 3 45 61 42 42 42 26 26 26
13 16 19 26 19 16 19 16 13 13 13 10 16 13 10 6 6 13 10 23 23 23 10 19 16 10 3 3 0 3 3 3 3 3 3 58 68 55 45 39 32 26 26
6 16 16 16 13 13 16 13 10 10 10 6 19 13 10 10 0 3 0 3 0 0 0 0 6 6 3 3 3 3 3 3 0 3 6 52 68 61 52 45 39 35 29
10 19 19 16 6 13 13 13 10 13 13 10 10 10 10 10 6 3 3 0 0 0 0 3 0 0 0 3 3 0 3 3 0 3 6 52 68 68 52 52 48 35 32
23 19 19 19 23 19 13 6 16 6 10 13 10 10 13 13 10 6 3 0 0 0 3 0 0 0 0 0 0 3 0 0 0 3 6 23 68 71 68 58 58 48 45
16 19 16 23 16 13 16 13 16 19 13 6 6 13 19 10 6 3 3 0 0 3 0 0 0 0 0 0 0 0 0 3 3 3 3 3 16 58 74 71 71 58 48
16 19 19 29 19 16 13 19 13 16 16 10 16 13 16 13 0 3 3 3 3 0 0 0 0 0 3 3 0 0 3 0 0 0 3 3 3 3 19 39 52 58 35
16 16 16 19 23 16 26 23 23 13 16 19 13 13 16 13 10 3 6 3 3 0 0 6 0 3 3 0 0 0 0 3 6 6 0 0 3 6 3 3 42 42 32
19 19 19 26 23 19 26 26 23 16 13 16 19 10 13 13 19 3 0 3 3 0 0 3 0 0 0 0 0 0 0 0 0 0 3 0 0 0 3 3 10 19 39
32 19 19 32 29 26 32 29 23 16 16 13 13 10 10 19 19 13 6 6 3 3 3 6 3 0 0 0 0 0 0 0 0 0 0 0 0 0 0 0 3 3 3
32 23 26 39 32 29 29 29 26 19 23 23 16 19 10 23 19 23 6 6 10 6 3 6 6 6 3 3 3 0 0 0 0 0 3 0 0 0 0 0 0 0 0
39 39 39 39 42 39 32 48 45 35 32 29 19 19 23 23 19 23 16 16 13 13 13 10 13 6 10 3 0 3 0 0 0 0 0 0 0 0 0 0 0 0 0
45 42 48 48 52 55 42 45 45 32 23 26 29 23 29 29 26 23 19 16 19 19 16 19 13 10 13 13 6 3 3 0 3 3 0 0 0 0 0 0 0 0 0
48 48 48 48 55 58 58 42 42 39 35 26 32 39 39 29 29 32 32 26 23 16 19 23 16 13 13 13 10 6 6 3 3 3 3 0 0 3 3 0 0 0 0
55 58 55 52 55 55 55 52 48 48 48 39 32 35 39 23 23 32 26 19 16 19 19 23 16 13 13 13 13 6 6 6 6 3 3 3 3 3 3 3 3 3 0
Height
5878 5877 5877 5876 5876 5876 5875 5875 5875 5874 5874 5873 5873 5872 5871 5871 5872 5872 5872 5872 5872 5873 5874 5875 5876 5877 5879 5880 5881 5882 5883 5883 5883 5884 5885 5885 5885 5885 5885 5885 5885 5885 5885
5879 5878 5878 5877 5877 5877 5876 5876 5876 5876 5875 5875 5875 5874 5874 5873 5873 5874 5874 5874 5875 5876 5876 5878 5879 5879 5880 5881 5883 5884 5884 5885 5885 5886 5886 5886 5886 5886 5886 5886 5886 5886 5887
5880 5880 5879 5879 5878 5878 5878 5877 5877 5877 5877 5876 5876 5876 5876 5876 5876 5876 5876 5877 5877 5878 5879 5880 5881 5882 5882 5883 5884 5885 5886 5886 5887 5887 5887 5887 5887 5887 5887 5887 5888 5888 5888
5881 5881 5880 5880 5880 5879 5879 5879 5879 5878 5878 5878 5878 5878 5877 5878 5878 5878 5878 5879 5879 5880 5881 5882 5883 5884 5884 5885 5886 5886 5887 5888 5888 5888 5888 5889 5889 5889 5889 5889 5889 5889 5889
5882 5882 5882 5881 5881 5881 5881 5881 5880 5879 5879 5880 5880 5879 5879 5880 5880 5880 5881 5881 5882 5882 5883 5883 5884 5885 5886 5887 5887 5888 5888 5889 5889 5889 5890 5890 5890 5890 5890 5890 5890 5890 5890
5884 5884 5883 5883 5883 5882 5882 5882 5881 5881 5881 5881 5881 5881 5881 5882 5882 5882 5883 5883 5884 5884 5885 5886 5887 5887 5888 5888 5889 5889 5890 5890 5890 5891 5891 5891 5891 5891 5891 5891 5891 5891 5891
5886 5885 5885 5885 5884 5884 5884 5884 5883 5883 5882 5883 5883 5883 5883 5883 5884 5885 5885 5885 5886 5886 5887 5888 5889 5889 5889 5890 5890 5891 5891 5891 5891 5892 5892 5892 5892 5892 5892 5892 5892 5892 5891
5887 5887 5887 5886 5886 5886 5886 5885 5885 5885 5884 5884 5884 5884 5885 5885 5886 5887 5887 5887 5888 5889 5889 5890 5890 5891 5891 5892 5892 5892 5892 5893 5893 5893 5893 5893 5893 5893 5893 5893 5893 5892 5892
5889 5889 5888 5888 5888 5888 5887 5887 5887 5886 5886 5886 5886 5886 5886 5887 5888 5888 5889 5889 5890 5890 5891 5891 5892 5892 5893 5893 5893 5894 5894 5894 5894 5894 5894 5894 5894 5893 5893 5894 5893 5893 5893
5891 5890 5890 5890 5890 5889 5889 5889 5889 5888 5888 5888 5888 5888 5887 5888 5889 5889 5890 5891 5891 5892 5892 5893 5893 5893 5894 5894 5894 5895 5894 5895 5895 5895 5895 5895 5894 5894 5894 5894 5894 5893 5893
5892 5892 5892 5891 5891 5891 5891 5890 5890 5890 5890 5890 5890 5890 5890 5890 5890 5891 5892 5892 5893 5893 5894 5894 5894 5894 5895 5895 5895 5895 5895 5895 5896 5896 5896 5896 5895 5895 5894 5894 5894 5894 5893
5894 5894 5893 5893 5893 5892 5892 5892 5892 5892 5891 5891 5892 5892 5891 5891 5892 5893 5893 5894 5894 5894 5895 5895 5895 5896 5896 5896 5896 5896 5896 5896 5896 5896 5896 5896 5895 5895 5895 5894 5894 5894 5893
5896 5896 5895 5894 5894 5894 5894 5893 5893 5893 5893 5893 5893 5893 5892 5893 5894 5894 5895 5895 5895 5896 5896 5896 5896 5897 5897 5897 5897 5897 5897 5897 5897 5897 5896 5896 5895 5895 5894 5894 5894 5893 5893
5899 5898 5897 5897 5896 5895 5895 5895 5895 5894 5894 5894 5894 5894 5894 5895 5895 5895 5896 5896 5896 5897 5897 5897 5897 5898 5898 5898 5898 5898 5897 5897 5897 5896 5896 5895 5895 5894 5894 5893 5893 5893 5892
5901 5900 5899 5898 5897 5897 5897 5896 5896 5896 5896 5896 5896 5896 5896 5896 5896 5896 5897 5897 5897 5897 5897 5898 5898 5898 5898 5898 5898 5898 5897 5897 5896 5896 5895 5895 5894 5894 5893 5893 5892 5892 5891
5902 5901 5901 5900 5899 5899 5898 5898 5898 5897 5897 5897 5897 5897 5898 5897 5897 5898 5898 5898 5898 5898 5898 5898 5898 5898 5898 5898 5898 5898 5897 5897 5896 5895 5895 5894 5894 5893 5892 5892 5891 5891 5890
5904 5903 5902 5901 5900 5900 5899 5899 5899 5899 5899 5898 5898 5898 5899 5898 5898 5898 5898 5898 5899 5899 5899 5898 5898 5898 5898 5898 5897 5897 5896 5896 5895 5894 5894 5893 5893 5892 5891 5891 5890 5889 5888
5906 5905 5904 5902 5902 5901 5901 5901 5900 5900 5900 5900 5899 5899 5899 5899 5899 5899 5899 5899 5899 5899 5899 5898 5898 5898 5898 5897 5897 5896 5895 5895 5894 5894 5893 5892 5891 5891 5890 5889 5888 5887 5887
5909 5907 5906 5904 5904 5903 5903 5902 5902 5901 5901 5900 5900 5899 5899 5899 5899 5899 5899 5899 5899 5899 5898 5898 5898 5898 5897 5896 5896 5895 5894 5894 5893 5892 5891 5890 5890 5889 5888 5887 5886 5886 5885
5911 5910 5908 5907 5906 5905 5904 5904 5903 5903 5902 5901 5900 5900 5900 5899 5899 5899 5899 5898 5898 5898 5898 5897 5897 5897 5896 5895 5895 5894 5893 5893 5892 5891 5890 5889 5888 5887 5887 5886 5885 5883 5883
5914 5912 5911 5909 5908 5907 5906 5905 5904 5904 5903 5902 5901 5900 5900 5899 5899 5898 5898 5898 5898 5897 5897 5897 5896 5895 5895 5894 5893 5892 5892 5891 5890 5889 5888 5887 5886 5885 5884 5883 5882 5881 5880
5916 5915 5913 5912 5910 5909 5907 5906 5905 5904 5903 5902 5902 5901 5900 5899 5898 5898 5898 5897 5897 5896 5896 5895 5895 5894 5893 5893 5892 5891 5890 5890 5888 5887 5886 5885 5884 5883 5882 5880 5879 5878 5877
5918 5916 5915 5913 5912 5910 5909 5907 5906 5905 5904 5903 5902 5901 5900 5899 5898 5898 5897 5896 5895 5895 5894 5893 5893 5892 5892 5891 5890 5889 5888 5887 5886 5885 5884 5883 5882 5880 5879 5876 5876 5875 5874
5920 5918 5917 5915 5913 5912 5910 5909 5907 5906 5904 5903 5902 5901 5900 5899 5898 5897 5896 5895 5894 5893 5893 5892 5891 5890 5889 5888 5887 5887 5886 5885 5884 5882 5881 5880 5879 5877 5875 5873 5872 5871 5870
5921 5920 5918 5916 5914 5912 5911 5909 5908 5906 5905 5904 5902 5901 5900 5899 5897 5896 5895 5894 5893 5892 5891 5890 5889 5888 5887 5886 5885 5884 5883 5882 5881 5880 5878 5877 5875 5874 5872 5870 5869 5867 5866
5922 5920 5919 5917 5916 5914 5912 5910 5908 5906 5905 5904 5902 5901 5899 5898 5897 5895 5894 5892 5891 5890 5889 5888 5887 5886 5885 5883 5882 5881 5879 5879 5878 5876 5875 5873 5872 5870 5868 5867 5865 5864 5862
Wind_Speed
9 8 8 8 8 7 6 6 7 6 6 5 5 7 9 10 11 11 12 12 13 14 14 15 14 14 13 13 13 12 12 12 12 11 11 11 10 10 10 9 9 8 8
10 9 8 8 8 8 7 7 7 6 6 6 6 7 8 9 10 11 12 12 13 14 14 14 14 13 13 13 12 12 12 12 12 11 11 10 9 10 10 9 9 8 8
10 10 10 9 8 8 8 8 8 7 7 7 7 7 8 10 10 11 11 12 13 13 13 14 14 13 13 12 12 12 12 12 11 10 10 9 9 9 9 8 8 8 8
11 11 11 10 10 9 9 9 9 8 8 7 7 7 9 10 10 11 12 12 13 12 12 13 13 13 12 12 11 11 11 11 10 10 9 9 9 9 9 8 8 8 8
11 11 11 10 10 9 9 9 9 9 8 8 8 8 8 9 10 11 11 12 12 12 12 12 12 12 12 11 11 10 10 10 9 9 8 8 8 8 8 8 8 8 8
11 11 10 10 10 9 9 9 8 8 8 8 8 8 9 9 10 10 10 11 11 11 11 12 12 12 11 10 10 10 10 9 8 8 7 7 7 7 7 7 7 7 7
11 10 11 11 10 10 9 9 9 9 9 9 9 9 9 10 10 10 10 10 11 11 11 11 11 10 10 9 9 9 9 8 8 7 7 6 6 6 6 6 6 6 6
11 11 11 11 11 10 10 10 10 10 10 10 10 10 10 10 10 10 10 10 10 10 10 10 10 10 9 9 9 8 8 7 7 7 6 6 6 6 6 5 5 5 5
12 11 11 11 11 11 10 10 10 10 10 10 10 10 9 10 10 10 10 10 10 9 9 10 10 9 9 8 8 7 6 6 6 6 5 5 5 5 5 4 4 4 4
12 12 11 11 11 11 10 10 9 9 10 10 10 10 10 10 10 10 10 10 9 9 9 9 8 8 8 8 7 7 6 5 5 4 4 4 4 4 3 3 3 3 3
12 11 11 10 10 10 10 9 9 9 9 9 9 10 10 9 10 10 9 9 9 9 9 8 8 8 8 7 7 6 4 4 3 3 3 2 2 2 2 2 2 1 1
12 11 10 10 10 10 9 9 8 8 8 8 9 9 8 9 9 9 8 8 8 8 8 7 7 7 7 7 6 5 4 3 2 2 2 1 1 1 1 0 1 1 1
12 11 11 10 10 9 9 8 8 8 8 7 7 8 8 8 8 8 7 6 7 6 6 6 6 5 6 5 4 4 3 2 2 1 1 1 0 1 1 1 1 2 2
13 12 11 10 10 9 9 8 8 8 8 7 7 7 8 8 7 6 6 6 6 5 5 5 4 4 4 4 3 2 1 1 1 0 0 0 1 1 2 2 2 3 3
13 12 11 11 10 9 9 8 8 8 8 7 7 6 6 6 6 5 5 5 5 4 4 3 3 2 2 2 1 1 1 1 1 1 2 1 2 2 3 3 4 4 4
14 13 12 11 10 10 9 9 8 7 7 7 6 6 5 5 4 4 4 4 4 3 3 2 2 1 1 0 0 1 1 2 2 2 2 2 3 3 3 4 5 5 6
15 14 13 12 11 11 10 9 8 8 7 7 6 5 4 3 3 3 2 2 2 2 2 2 2 1 1 1 1 1 2 3 4 4 4 4 4 4 5 5 6 7 7
15 14 13 13 12 11 11 9 8 7 7 6 5 4 3 2 2 2 2 1 1 1 1 2 2 2 2 2 3 3 4 4 4 5 5 5 6 6 6 6 7 8 8
16 15 14 13 12 11 11 10 9 8 7 6 5 3 3 2 1 1 0 0 1 1 2 2 3 3 3 4 5 5 6 5 6 6 7 7 7 7 7 7 7 8 9
16 16 15 14 13 11 11 10 9 8 7 6 5 4 3 3 2 1 1 2 2 2 3 3 4 4 5 5 6 7 7 8 7 8 8 8 8 8 8 8 9 9 9
15 15 15 14 14 12 11 10 9 8 7 7 6 5 4 4 3 3 2 3 3 4 4 4 5 5 6 6 7 7 8 9 9 9 9 9 10 10 10 10 11 11 11
15 14 14 14 14 13 12 11 10 9 8 7 6 6 5 5 4 4 4 4 4 5 5 5 6 6 7 7 8 8 8 9 9 8 9 9 10 12 12 12 12 13 12
14 14 14 14 14 14 13 12 11 9 8 8 7 7 6 5 5 4 4 5 5 6 6 7 7 7 7 8 8 9 9 9 9 10 11 11 12 12 12 12 13 13 14
12 13 13 14 13 13 13 12 11 10 9 8 8 7 7 7 6 6 5 5 6 7 7 8 9 9 9 9 9 9 10 10 11 11 12 12 13 14 14 14 14 14 14
11 12 13 13 14 14 13 12 11 10 10 9 8 8 7 7 7 7 7 6 6 7 8 8 9 9 9 10 10 11 11 11 12 13 13 13 14 14 15 15 15 15 15
10 11 12 12 13 14 13 13 12 11 10 10 9 9 8 8 8 8 8 8 8 8 8 9 9 9 10 10 11 12 12 12 12 13 13 14 14 14 15 15 15 15 15
Wind_Direction
74 76 76 76 74 73 74 66 63 63 64 67 82 100 103 105 106 109 110 109 111 114 116 118 119 121 125 126 123 121 118 117 118 111 109 107 103 101 104 103 101 101 101
76 75 75 79 76 75 75 73 70 67 66 72 88 104 108 109 107 108 110 109 112 114 115 119 121 124 123 122 121 120 119 118 117 112 111 109 105 100 102 100 98 100 100
78 74 72 73 75 77 78 78 77 77 76 78 91 105 111 110 107 107 113 113 114 116 118 121 122 124 122 122 122 121 119 120 117 111 108 109 106 105 104 102 98 97 95
76 73 72 74 76 78 80 81 80 81 85 88 96 105 113 115 113 110 112 114 117 119 121 122 123 125 123 123 121 120 120 122 114 106 102 103 102 99 96 98 98 98 96
77 74 74 76 78 79 82 84 82 85 94 96 102 110 115 120 119 116 114 115 117 120 119 120 122 123 123 122 121 120 118 116 112 105 102 99 101 101 99 100 97 97 96
78 76 76 78 80 81 81 84 85 86 92 94 94 102 114 118 122 118 114 116 118 118 117 118 120 119 120 120 120 120 118 114 111 108 106 105 108 108 105 104 102 100 97
80 78 77 77 79 79 80 83 85 88 90 92 99 104 108 117 120 118 117 118 119 119 117 117 118 119 119 117 117 117 115 115 113 113 111 113 115 110 103 101 103 102 97
79 78 77 76 76 78 80 81 83 89 90 97 106 109 111 118 118 119 116 115 120 121 121 122 120 119 118 118 117 115 116 118 118 116 114 115 118 111 104 103 107 105 99
76 78 76 75 75 77 80 81 83 88 90 100 107 113 121 125 125 121 117 117 118 120 123 123 122 123 123 118 117 115 116 116 117 116 116 115 114 110 108 105 102 103 98
78 77 76 75 77 79 81 84 84 89 92 95 101 106 115 120 123 125 122 122 122 125 128 125 124 120 119 117 116 115 116 115 116 114 119 121 120 116 111 100 92 89 83
79 78 77 76 80 81 82 85 85 88 90 95 100 105 110 118 119 119 122 122 121 125 124 121 120 117 116 115 115 114 113 110 109 115 119 123 126 123 115 92 71 56 51
75 76 78 80 81 82 83 85 87 90 91 97 102 105 108 115 118 120 122 120 122 123 122 121 120 118 114 111 109 110 108 98 82 96 118 122 133 138 125 32 13 13 355
73 76 77 79 82 83 84 84 88 90 92 97 101 106 108 112 116 119 123 130 133 132 127 126 121 119 112 110 110 106 103 95 70 68 101 108 212 276 284 279 292 313 321
72 74 77 79 80 83 80 81 85 87 90 91 102 109 110 111 114 118 125 140 140 139 136 135 128 119 114 112 110 99 86 93 60 12 32 354 320 311 298 276 272 281 292
71 70 68 68 72 75 76 79 82 85 86 87 95 102 106 107 109 123 135 135 145 145 135 127 130 120 117 106 102 87 25 23 324 294 286 299 301 294 295 284 273 274 287
66 64 63 64 66 70 74 73 77 85 86 88 94 95 101 107 108 110 123 123 131 141 151 148 144 136 123 93 16 358 322 311 309 309 297 289 292 290 296 288 279 280 282
61 61 62 62 64 69 72 74 75 79 82 83 86 87 94 104 114 111 118 124 139 144 160 189 205 217 271 300 319 321 299 295 290 286 289 290 291 294 296 289 287 287 285
56 58 58 59 62 66 69 70 71 71 73 73 77 76 73 84 112 118 123 135 177 202 216 224 241 257 269 281 286 290 294 300 290 285 286 285 286 287 295 294 286 286 287
53 55 57 58 61 62 63 64 64 63 64 62 57 62 63 57 59 85 142 234 272 280 270 266 269 276 276 279 282 286 297 298 293 287 288 286 287 289 293 299 292 288 286
53 56 57 59 61 59 58 59 59 55 53 51 49 49 45 31 12 336 293 290 287 296 290 288 290 289 286 281 282 286 291 293 293 292 289 288 289 289 290 292 295 289 285
53 55 58 59 58 55 53 52 51 49 45 42 41 38 28 13 355 332 308 287 285 293 295 293 296 295 290 287 285 284 284 285 292 291 290 289 288 289 287 290 294 287 281
51 51 52 53 51 48 46 45 45 43 40 38 36 30 21 8 353 336 324 309 297 293 295 291 294 294 290 286 284 285 288 289 288 291 289 291 290 291 287 286 285 286 280
48 48 48 47 46 43 41 39 37 36 33 32 28 23 18 10 4 351 334 322 311 301 295 294 289 288 288 288 288 287 290 294 292 290 291 291 290 288 287 285 285 283 280
46 45 44 43 41 40 38 35 33 32 28 24 18 15 13 9 3 353 341 330 318 309 305 302 299 290 288 285 286 287 288 289 290 293 294 293 292 291 290 290 288 286 283
44 42 40 39 37 34 32 32 29 29 27 23 18 14 11 7 1 352 341 330 324 316 310 308 308 302 296 292 288 286 289 290 289 291 292 293 291 292 291 289 288 285 283
39 39 38 35 33 31 29 27 25 25 24 21 17 14 11 6 360 353 342 335 329 323 314 309 308 305 304 301 296 293 292 293 294 293 294 295 295 295 294 291 288 285 283